TimeCDT,TemperatureF,Dew PointF,Humidity,Sea Level PressureIn,VisibilityMPH,Wind Direction,Wind SpeedMPH,Gust SpeedMPH,PrecipitationIn,Events,Conditions,WindDirDegrees,DateUTC
12:15 AM,37.4,28.4,70,30.02,10.0,WNW,9.2,-,N/A,,Clear,290,2012-10-10 05:15:00
12:35 AM,37.4,28.4,70,30.02,10.0,WNW,10.4,-,N/A,,Clear,290,2012-10-10 05:35:00
12:55 AM,35.6,28.4,75,30.02,10.0,WNW,11.5,-,N/A,,Clear,290,2012-10-10 05:55:00
1:15 AM,35.6,26.6,70,30.02,10.0,WNW,9.2,-,N/A,,Clear,290,2012-10-10 06:15:00
1:35 AM,33.8,26.6,75,30.03,10.0,West,8.1,-,N/A,,Clear,270,2012-10-10 06:35:00
1:55 AM,33.8,26.6,75,30.03,10.0,WNW,8.1,-,N/A,,Clear,290,2012-10-10 06:55:00
2:15 AM,33.8,26.6,75,30.03,10.0,West,8.1,-,N/A,,Clear,280,2012-10-10 07:15:00
2:35 AM,32.0,26.6,80,30.03,10.0,West,6.9,-,N/A,,Clear,280,2012-10-10 07:35:00
2:55 AM,33.8,26.6,75,30.03,10.0,WNW,6.9,-,N/A,,Clear,290,2012-10-10 07:55:00
3:15 AM,32.0,26.6,80,30.04,10.0,WNW,6.9,-,N/A,,Clear,290,2012-10-10 08:15:00
3:35 AM,32.0,26.6,80,30.04,10.0,West,8.1,-,N/A,,Clear,280,2012-10-10 08:35:00
3:55 AM,33.8,26.6,75,30.05,10.0,West,9.2,-,N/A,,Clear,280,2012-10-10 08:55:00
4:15 AM,32.0,26.6,80,30.05,10.0,West,6.9,-,N/A,,Clear,280,2012-10-10 09:15:00
4:35 AM,30.2,24.8,80,30.05,10.0,West,5.8,-,N/A,,Clear,260,2012-10-10 09:35:00
4:55 AM,30.2,24.8,80,30.06,10.0,West,5.8,-,N/A,,Clear,260,2012-10-10 09:55:00
5:15 AM,30.2,24.8,80,30.07,10.0,West,5.8,-,N/A,,Scattered Clouds,260,2012-10-10 10:15:00
5:35 AM,32.0,26.6,80,30.07,10.0,West,5.8,-,N/A,,Mostly Cloudy,260,2012-10-10 10:35:00
5:55 AM,33.8,26.6,75,30.08,10.0,West,4.6,-,N/A,,Overcast,260,2012-10-10 10:55:00
6:15 AM,33.8,28.4,81,30.08,10.0,West,5.8,-,N/A,,Overcast,260,2012-10-10 11:15:00
6:35 AM,33.8,28.4,81,30.09,10.0,West,6.9,-,N/A,,Overcast,270,2012-10-10 11:35:00
6:55 AM,33.8,28.4,81,30.09,10.0,West,5.8,-,N/A,,Overcast,270,2012-10-10 11:55:00
7:15 AM,35.6,28.4,75,30.10,10.0,West,5.8,-,N/A,,Overcast,270,2012-10-10 12:15:00
7:55 AM,35.6,28.4,75,30.11,10.0,West,4.6,-,N/A,,Mostly Cloudy,270,2012-10-10 12:55:00
8:35 AM,35.6,30.2,81,30.12,10.0,West,6.9,-,N/A,,Scattered Clouds,270,2012-10-10 13:35:00
8:55 AM,37.4,30.2,75,30.13,10.0,West,8.1,-,N/A,,Clear,280,2012-10-10 13:55:00
9:15 AM,39.2,30.2,70,30.13,10.0,WNW,10.4,16.1,N/A,,Clear,290,2012-10-10 14:15:00
9:35 AM,42.8,30.2,61,30.14,10.0,WNW,13.8,-,N/A,,Clear,290,2012-10-10 14:35:00
9:55 AM,42.8,30.2,61,30.15,10.0,WNW,12.7,16.1,N/A,,Clear,300,2012-10-10 14:55:00
10:15 AM,42.8,30.2,61,30.15,10.0,WNW,13.8,-,N/A,,Clear,290,2012-10-10 15:15:00
10:35 AM,44.6,30.2,57,30.15,10.0,West,12.7,-,N/A,,Clear,280,2012-10-10 15:35:00
10:55 AM,44.6,30.2,57,30.16,10.0,NW,11.5,-,N/A,,Clear,310,2012-10-10 15:55:00
11:15 AM,44.6,30.2,57,30.16,10.0,WNW,13.8,20.7,N/A,,Clear,300,2012-10-10 16:15:00
11:55 AM,46.4,28.4,50,30.16,10.0,West,15.0,19.6,N/A,,Clear,280,2012-10-10 16:55:00
12:15 PM,48.2,28.4,46,30.16,10.0,NW,10.4,20.7,N/A,,Clear,310,2012-10-10 17:15:00
12:35 PM,50.0,28.4,43,30.16,10.0,WNW,15.0,24.2,N/A,,Scattered Clouds,290,2012-10-10 17:35:00
12:55 PM,50.0,26.6,40,30.16,10.0,West,15.0,24.2,N/A,,Scattered Clouds,270,2012-10-10 17:55:00
1:15 PM,50.0,24.8,37,30.15,10.0,West,17.3,20.7,N/A,,Clear,280,2012-10-10 18:15:00
1:35 PM,50.0,23.0,35,30.14,10.0,WNW,17.3,23.0,N/A,,Scattered Clouds,290,2012-10-10 18:35:00
1:55 PM,51.8,23.0,33,30.13,10.0,West,15.0,21.9,N/A,,Clear,260,2012-10-10 18:55:00
2:15 PM,51.8,21.2,30,30.13,10.0,West,16.1,20.7,N/A,,Clear,270,2012-10-10 19:15:00
2:35 PM,51.8,21.2,30,30.12,10.0,West,16.1,21.9,N/A,,Scattered Clouds,270,2012-10-10 19:35:00
2:55 PM,53.6,21.2,28,30.12,10.0,West,15.0,18.4,N/A,,Scattered Clouds,270,2012-10-10 19:55:00
3:15 PM,53.6,21.2,28,30.12,10.0,WSW,13.8,20.7,N/A,,Scattered Clouds,250,2012-10-10 20:15:00
3:35 PM,51.8,24.8,35,30.12,10.0,West,9.2,-,N/A,,Scattered Clouds,280,2012-10-10 20:35:00
3:55 PM,53.6,24.8,33,30.10,10.0,SW,11.5,-,N/A,,Scattered Clouds,220,2012-10-10 20:55:00
4:15 PM,53.6,24.8,33,30.10,10.0,West,15.0,21.9,N/A,,Mostly Cloudy,260,2012-10-10 21:15:00
4:35 PM,53.6,24.8,33,30.09,10.0,West,11.5,-,N/A,,Scattered Clouds,260,2012-10-10 21:35:00
4:55 PM,53.6,24.8,33,30.09,10.0,West,10.4,-,N/A,,Clear,260,2012-10-10 21:55:00
5:15 PM,53.6,24.8,33,30.08,10.0,WSW,11.5,-,N/A,,Clear,240,2012-10-10 22:15:00
5:35 PM,53.6,24.8,33,30.08,10.0,West,10.4,-,N/A,,Clear,260,2012-10-10 22:35:00
5:55 PM,51.8,24.8,35,30.08,10.0,WSW,8.1,-,N/A,,Clear,250,2012-10-10 22:55:00
6:15 PM,51.8,26.6,38,30.08,10.0,SW,4.6,-,N/A,,Clear,230,2012-10-10 23:15:00
6:35 PM,48.2,24.8,40,30.07,10.0,SSW,3.5,-,N/A,,Clear,200,2012-10-10 23:35:00
6:55 PM,46.4,26.6,46,30.07,10.0,South,3.5,-,N/A,,Clear,170,2012-10-10 23:55:00
7:15 PM,46.4,26.6,46,30.07,10.0,SSE,5.8,-,N/A,,Clear,160,2012-10-11 00:15:00
7:35 PM,42.8,26.6,53,30.08,10.0,SSE,4.6,-,N/A,,Clear,150,2012-10-11 00:35:00
7:55 PM,42.8,26.6,53,30.07,10.0,SSE,5.8,-,N/A,,Clear,150,2012-10-11 00:55:00
8:15 PM,42.8,26.6,53,30.06,10.0,SSE,5.8,-,N/A,,Clear,150,2012-10-11 01:15:00
8:35 PM,42.8,26.6,53,30.06,10.0,South,9.2,-,N/A,,Clear,170,2012-10-11 01:35:00
8:55 PM,41.0,28.4,61,30.05,10.0,SSE,9.2,-,N/A,,Clear,160,2012-10-11 01:55:00
9:15 PM,42.8,26.6,53,30.05,10.0,SSE,8.1,-,N/A,,Clear,160,2012-10-11 02:15:00
9:35 PM,42.8,26.6,53,30.05,10.0,SSE,9.2,-,N/A,,Clear,160,2012-10-11 02:35:00
9:55 PM,41.0,26.6,57,30.05,10.0,South,8.1,-,N/A,,Clear,170,2012-10-11 02:55:00
10:15 PM,41.0,26.6,57,30.04,10.0,South,9.2,-,N/A,,Clear,170,2012-10-11 03:15:00
10:35 PM,42.8,26.6,53,30.03,10.0,South,11.5,-,N/A,,Clear,170,2012-10-11 03:35:00
10:55 PM,42.8,26.6,53,30.02,10.0,South,13.8,-,N/A,,Clear,170,2012-10-11 03:55:00
11:15 PM,42.8,26.6,53,30.03,10.0,South,11.5,-,N/A,,Clear,170,2012-10-11 04:15:00
11:35 PM,42.8,26.6,53,30.02,10.0,South,11.5,-,N/A,,Clear,170,2012-10-11 04:35:00
11:55 PM,41.0,26.6,57,30.01,10.0,South,10.4,-,N/A,,Clear,170,2012-10-11 04:55:00